| time (UTC) | temp F | wind direction | speed knots | gust knots | rain 1hr in | rain 24hr in | rain mn in | humidity % | barometer mb |
| 20260505125035 | 66 | 284 | 1.7 | 10.4 | 0.00 | 0.00 | 0.00 | 62 | 1012.7 |
| 20260505124546 | 66 | 217 | 3.5 | 10.4 | 0.00 | 0.00 | 0.00 | 62 | 1012.8 |
| 20260505124037 | 65 | 272 | 2.6 | 8.7 | 0.00 | 0.00 | 0.00 | 62 | 1012.9 |
| 20260505123538 | 65 | 166 | 3.5 | 10.4 | 0.00 | 0.00 | 0.00 | 63 | 1012.8 |
| 20260505123050 | 65 | 248 | 3.5 | 10.4 | 0.00 | 0.00 | 0.00 | 64 | 1012.9 |
| 20260505122535 | 64 | 254 | 3.5 | 9.6 | 0.00 | 0.00 | 0.00 | 66 | 1012.9 |
| 20260505122035 | 64 | 273 | 4.3 | 8.7 | 0.00 | 0.00 | 0.00 | 67 | 1012.8 |
| 20260505121550 | 63 | 261 | 2.6 | 7.0 | 0.00 | 0.00 | 0.00 | 69 | 1012.6 |
| 20260505121035 | 63 | 224 | 0.9 | 4.3 | 0.00 | 0.00 | 0.00 | 71 | 1012.7 |
| 20260505120539 | 62 | 230 | 0.9 | 6.1 | 0.00 | 0.00 | 0.00 | 71 | 1012.6 |
| 20260505120104 | 62 | 269 | 1.7 | 6.1 | 0.00 | 0.00 | 0.00 | 73 | 1012.7 |
| 20260505115535 | 61 | 289 | 0.9 | 5.2 | 0.00 | 0.00 | 0.00 | 74 | 1012.6 |
| 20260505115035 | 61 | 233 | 0.0 | 4.3 | 0.00 | 0.00 | 0.00 | 75 | 1012.6 |
| 20260505114544 | 60 | 238 | 2.6 | 4.3 | 0.00 | 0.00 | 0.00 | 76 | 1012.5 |
| 20260505114039 | 59 | 252 | 0.0 | 2.6 | 0.00 | 0.00 | 0.00 | 79 | 1012.6 |
| 20260505113539 | 59 | 238 | 0.0 | 2.6 | 0.00 | 0.00 | 0.00 | 79 | 1012.5 |
| 20260505113049 | 58 | 240 | 0.0 | 2.6 | 0.00 | 0.00 | 0.00 | 80 | 1012.7 |
| 20260505112536 | 58 | 236 | 0.0 | 2.6 | 0.00 | 0.00 | 0.00 | 81 | 1012.8 |
| 20260505112036 | 57 | 0 | 0.0 | 1.7 | 0.00 | 0.00 | 0.00 | 81 | 1012.6 |
| 20260505111539 | 57 | 0 | 0.0 | 0.9 | 0.00 | 0.00 | 0.00 | 81 | 1012.7 |
| 20260505111036 | 57 | 0 | 0.0 | 0.9 | 0.00 | 0.00 | 0.00 | 80 | 1012.7 |
| 20260505110535 | 57 | 0 | 0.0 | 0.9 | 0.00 | 0.00 | 0.00 | 80 | 1012.6 |
| 20260505110106 | 58 | 0 | 0.0 | 2.6 | 0.00 | 0.00 | 0.00 | 80 | 1012.5 |
| 20260505102036 | 57 | 240 | 0.9 | 6.1 | 0.00 | 0.00 | 0.00 | 82 | 1012.1 |
| 20260505101538 | 57 | 254 | 0.9 | 5.2 | 0.00 | 0.00 | 0.00 | 82 | 1011.9 |
| 20260505101037 | 57 | 0 | 0.9 | 2.6 | 0.00 | 0.00 | 0.00 | 82 | 1011.9 |
| 20260505100537 | 57 | 0 | 0.0 | 4.3 | 0.00 | 0.00 | 0.00 | 82 | 1011.9 |
| 20260505100049 | 56 | 257 | 0.9 | 4.3 | 0.00 | 0.00 | 0.00 | 82 | 1012.0 |
| 20260505095537 | 56 | 252 | 0.9 | 4.3 | 0.00 | 0.00 | 0.00 | 82 | 1011.9 |
| 20260505095037 | 56 | 232 | 0.9 | 3.5 | 0.00 | 0.00 | 0.00 | 82 | 1011.9 |
| 20260505094550 | 56 | 227 | 0.0 | 2.6 | 0.00 | 0.00 | 0.00 | 82 | 1012.0 |
| 20260505094037 | 56 | 252 | 0.9 | 5.2 | 0.00 | 0.00 | 0.00 | 82 | 1012.0 |
| 20260505093537 | 56 | 219 | 0.0 | 5.2 | 0.00 | 0.00 | 0.00 | 81 | 1011.8 |
| 20260505093049 | 56 | 195 | 0.0 | 5.2 | 0.00 | 0.00 | 0.00 | 81 | 1011.8 |
| 20260505092537 | 57 | 212 | 0.0 | 3.5 | 0.00 | 0.00 | 0.00 | 81 | 1011.8 |
| 20260505092037 | 57 | 0 | 0.0 | 3.5 | 0.00 | 0.00 | 0.00 | 80 | 1011.9 |
| 20260505091555 | 57 | 0 | 0.9 | 4.3 | 0.00 | 0.00 | 0.00 | 80 | 1011.9 |
| 20260505091040 | 57 | 144 | 0.0 | 5.2 | 0.00 | 0.00 | 0.00 | 79 | 1011.8 |
| 20260505090536 | 57 | 259 | 0.9 | 5.2 | 0.00 | 0.00 | 0.00 | 79 | 1011.9 |
| 20260505090047 | 57 | 230 | 1.7 | 5.2 | 0.00 | 0.00 | 0.00 | 79 | 1011.9 |
| 20260505085537 | 57 | 214 | 1.7 | 4.3 | 0.00 | 0.00 | 0.00 | 79 | 1011.8 |
| 20260505085037 | 57 | 0 | 0.9 | 7.0 | 0.00 | 0.00 | 0.00 | 79 | 1011.9 |
| 20260505084556 | 57 | 248 | 0.0 | 7.0 | 0.00 | 0.00 | 0.00 | 78 | 1011.9 |
| 20260505084036 | 58 | 170 | 1.7 | 7.8 | 0.00 | 0.00 | 0.00 | 78 | 1011.8 |
| 20260505083540 | 58 | 261 | 2.6 | 7.8 | 0.00 | 0.00 | 0.00 | 78 | 1011.9 |
| 20260505083056 | 58 | 243 | 1.7 | 5.2 | 0.00 | 0.00 | 0.00 | 78 | 1011.9 |
| 20260505082537 | 58 | 262 | 0.9 | 4.3 | 0.00 | 0.00 | 0.00 | 78 | 1011.9 |
| 20260505082037 | 58 | 0 | 0.9 | 7.0 | 0.00 | 0.00 | 0.00 | 78 | 1011.9 |
| 20260505081551 | 58 | 0 | 0.9 | 7.0 | 0.00 | 0.00 | 0.00 | 78 | 1011.9 |
| 20260505081037 | 57 | 126 | 2.6 | 7.0 | 0.00 | 0.00 | 0.00 | 78 | 1011.8 |
| 20260505080537 | 57 | 267 | 0.9 | 7.0 | 0.00 | 0.00 | 0.00 | 78 | 1011.9 |
| 20260505080040 | 57 | 114 | 0.9 | 7.8 | 0.00 | 0.00 | 0.00 | 78 | 1012.0 |
| 20260505075541 | 57 | 213 | 2.6 | 7.8 | 0.00 | 0.00 | 0.00 | 78 | 1011.8 |
| 20260505075037 | 57 | 261 | 0.9 | 7.8 | 0.00 | 0.00 | 0.00 | 78 | 1011.8 |
| 20260505074550 | 57 | 240 | 0.9 | 7.8 | 0.00 | 0.00 | 0.00 | 78 | 1011.8 |
| 20260505074037 | 57 | 0 | 1.7 | 7.8 | 0.00 | 0.00 | 0.00 | 78 | 1011.8 |
| 20260505073537 | 57 | 237 | 0.9 | 7.8 | 0.00 | 0.00 | 0.00 | 78 | 1011.8 |
| 20260505073057 | 57 | 228 | 0.0 | 4.3 | 0.00 | 0.00 | 0.00 | 77 | 1011.9 |
| 20260505072537 | 57 | 264 | 0.9 | 8.7 | 0.00 | 0.00 | 0.00 | 77 | 1011.8 |
| 20260505072038 | 57 | 207 | 0.0 | 8.7 | 0.00 | 0.00 | 0.00 | 76 | 1011.6 |
| 20260505071551 | 58 | 204 | 1.7 | 7.8 | 0.00 | 0.00 | 0.00 | 76 | 1011.6 |
| 20260505071037 | 58 | 271 | 1.7 | 8.7 | 0.00 | 0.00 | 0.00 | 75 | 1011.6 |
| 20260505070537 | 58 | 191 | 1.7 | 8.7 | 0.00 | 0.00 | 0.00 | 75 | 1011.4 |
| 20260505070053 | 58 | 256 | 0.9 | 6.1 | 0.00 | 0.00 | 0.00 | 75 | 1011.5 |
| 20260505065538 | 58 | 256 | 0.9 | 6.1 | 0.00 | 0.00 | 0.00 | 74 | 1011.5 |
| 20260505065036 | 58 | 247 | 0.0 | 3.5 | 0.00 | 0.00 | 0.00 | 74 | 1011.5 |
| 20260505064625 | 58 | 0 | 0.0 | 5.2 | 0.00 | 0.00 | 0.00 | 74 | 1011.6 |
| 20260505064037 | 59 | 248 | 1.7 | 7.0 | 0.00 | 0.00 | 0.00 | 73 | 1011.5 |
| 20260505063538 | 59 | 240 | 1.7 | 7.0 | 0.00 | 0.00 | 0.00 | 73 | 1011.6 |
| 20260505063047 | 59 | 271 | 2.6 | 8.7 | 0.00 | 0.00 | 0.00 | 73 | 1011.7 |
| 20260505062537 | 59 | 264 | 1.7 | 8.7 | 0.00 | 0.00 | 0.00 | 73 | 1011.8 |
| 20260505062038 | 59 | 249 | 2.6 | 8.7 | 0.00 | 0.00 | 0.00 | 73 | 1011.6 |
| 20260505061548 | 59 | 140 | 0.9 | 6.1 | 0.00 | 0.00 | 0.00 | 73 | 1011.7 |
| 20260505061041 | 59 | 250 | 0.9 | 7.0 | 0.00 | 0.00 | 0.00 | 72 | 1011.6 |
| 20260505060537 | 59 | 209 | 0.9 | 7.0 | 0.00 | 0.00 | 0.00 | 72 | 1011.8 |
| 20260505060050 | 59 | 254 | 0.0 | 7.0 | 0.00 | 0.00 | 0.00 | 72 | 1011.8 |
| 20260505055540 | 59 | 243 | 0.9 | 8.7 | 0.00 | 0.00 | 0.00 | 72 | 1011.9 |
| 20260505055037 | 59 | 229 | 1.7 | 8.7 | 0.00 | 0.00 | 0.00 | 72 | 1011.9 |
| 20260505054552 | 59 | 0 | 0.9 | 7.8 | 0.00 | 0.00 | 0.00 | 71 | 1011.9 |
| 20260505054037 | 59 | 226 | 1.7 | 7.8 | 0.00 | 0.00 | 0.00 | 71 | 1011.8 |
| 20260505053538 | 59 | 257 | 0.9 | 3.5 | 0.00 | 0.00 | 0.00 | 71 | 1011.9 |
| 20260505053048 | 59 | 246 | 0.9 | 7.0 | 0.00 | 0.00 | 0.00 | 71 | 1011.9 |
| 20260505052539 | 59 | 273 | 0.9 | 7.0 | 0.00 | 0.00 | 0.00 | 71 | 1011.9 |
| 20260505052037 | 59 | 249 | 0.0 | 5.2 | 0.00 | 0.00 | 0.00 | 70 | 1011.8 |
| 20260505051549 | 59 | 160 | 0.9 | 7.0 | 0.00 | 0.00 | 0.00 | 70 | 1011.9 |
| 20260505051037 | 59 | 159 | 0.9 | 7.0 | 0.00 | 0.00 | 0.00 | 69 | 1011.9 |
| 20260505050537 | 59 | 219 | 0.9 | 7.0 | 0.00 | 0.00 | 0.00 | 70 | 1011.9 |
| 20260505041556 | 59 | 217 | 0.0 | 7.0 | 0.00 | 0.00 | 0.00 | 68 | 1012.1 |
| 20260505041037 | 59 | 171 | 0.9 | 6.1 | 0.00 | 0.00 | 0.00 | 69 | 1012.2 |
| 20260505040541 | 58 | 176 | 0.9 | 4.3 | 0.00 | 0.00 | 0.00 | 69 | 1012.2 |
| 20260505040044 | 58 | 0 | 0.0 | 3.5 | 0.00 | 0.00 | 0.00 | 70 | 1012.3 |
| 20260505035537 | 58 | 0 | 0.0 | 3.5 | 0.00 | 0.00 | 0.00 | 70 | 1012.1 |
| 20260505035036 | 57 | 0 | 0.0 | 3.5 | 0.00 | 0.00 | 0.00 | 70 | 1012.0 |
| 20260505034604 | 57 | 0 | 0.0 | 4.3 | 0.00 | 0.00 | 0.00 | 71 | 1012.2 |
| 20260505034038 | 57 | 260 | 0.0 | 4.3 | 0.00 | 0.00 | 0.00 | 71 | 1012.2 |
| 20260505033537 | 57 | 0 | 0.0 | 1.7 | 0.00 | 0.00 | 0.00 | 71 | 1012.2 |
| 20260505033047 | 57 | 103 | 0.0 | 5.2 | 0.00 | 0.00 | 0.00 | 71 | 1012.3 |
| 20260505032537 | 57 | 144 | 0.9 | 5.2 | 0.00 | 0.00 | 0.00 | 71 | 1012.2 |
| 20260505032037 | 56 | 0 | 0.9 | 1.7 | 0.00 | 0.00 | 0.00 | 71 | 1012.2 |
| 20260505031546 | 56 | 0 | 0.0 | 4.3 | 0.00 | 0.00 | 0.00 | 72 | 1012.3 |
| 20260505031037 | 56 | 0 | 0.0 | 4.3 | 0.00 | 0.00 | 0.00 | 72 | 1012.4 |
| 20260505030541 | 56 | 0 | 0.0 | 2.6 | 0.00 | 0.00 | 0.00 | 72 | 1012.4 |
| 20260505030049 | 56 | 0 | 0.0 | 2.6 | 0.00 | 0.00 | 0.00 | 73 | 1012.4 |
| 20260505025537 | 56 | 0 | 0.0 | 2.6 | 0.00 | 0.00 | 0.00 | 73 | 1012.5 |
| 20260505025037 | 56 | 96 | 0.0 | 2.6 | 0.00 | 0.00 | 0.00 | 73 | 1012.4 |
| 20260505024541 | 56 | 141 | 0.0 | 3.5 | 0.00 | 0.00 | 0.00 | 73 | 1012.4 |
| 20260505024037 | 56 | 0 | 0.0 | 3.5 | 0.00 | 0.00 | 0.00 | 73 | 1012.5 |
| 20260505023537 | 56 | 0 | 0.0 | 3.5 | 0.00 | 0.00 | 0.00 | 73 | 1012.6 |
| 20260505023050 | 56 | 0 | 0.0 | 5.2 | 0.00 | 0.00 | 0.00 | 72 | 1012.5 |
| 20260505022537 | 56 | 0 | 0.0 | 5.2 | 0.00 | 0.00 | 0.00 | 71 | 1012.7 |
| 20260505022037 | 56 | 0 | 0.0 | 0.0 | 0.00 | 0.00 | 0.00 | 70 | 1012.6 |
| 20260505021545 | 57 | 0 | 0.0 | 1.7 | 0.00 | 0.00 | 0.00 | 69 | 1012.7 |
| 20260505021036 | 57 | 0 | 0.0 | 1.7 | 0.00 | 0.00 | 0.00 | 69 | 1012.7 |
| 20260505020537 | 58 | 0 | 0.0 | 1.7 | 0.00 | 0.00 | 0.00 | 68 | 1012.7 |
| 20260505015535 | 58 | 0 | 0.0 | 2.6 | 0.00 | 0.00 | 0.00 | 66 | 1012.6 |
| 20260505015036 | 58 | 0 | 0.9 | 2.6 | 0.00 | 0.00 | 0.00 | 65 | 1012.8 |
| 20260505014545 | 58 | 0 | 0.0 | 1.7 | 0.00 | 0.00 | 0.00 | 65 | 1012.7 |
| 20260505014036 | 59 | 0 | 0.0 | 1.7 | 0.00 | 0.00 | 0.00 | 64 | 1012.6 |
| 20260505013537 | 59 | 0 | 0.0 | 3.5 | 0.00 | 0.00 | 0.00 | 63 | 1012.6 |
| 20260505013042 | 59 | 0 | 0.9 | 3.5 | 0.00 | 0.00 | 0.00 | 62 | 1012.4 |
| 20260505012540 | 59 | 142 | 0.0 | 1.7 | 0.00 | 0.00 | 0.00 | 61 | 1012.6 |
| 20260505012038 | 60 | 153 | 0.0 | 1.7 | 0.00 | 0.00 | 0.00 | 61 | 1012.4 |
| 20260505011550 | 60 | 0 | 0.0 | 1.7 | 0.00 | 0.00 | 0.00 | 60 | 1012.4 |
| 20260505011038 | 60 | 142 | 0.0 | 1.7 | 0.00 | 0.00 | 0.00 | 60 | 1012.4 |
| 20260505010537 | 60 | 136 | 0.0 | 1.7 | 0.00 | 0.00 | 0.00 | 60 | 1012.2 |
| 20260505010107 | 60 | 146 | 0.0 | 0.9 | 0.00 | 0.00 | 0.00 | 59 | 1012.2 |
| 20260505005537 | 60 | 150 | 0.0 | 2.6 | 0.00 | 0.00 | 0.00 | 58 | 1012.2 |
| 20260505005037 | 61 | 129 | 0.0 | 2.6 | 0.00 | 0.00 | 0.00 | 57 | 1012.1 |
| 20260505004601 | 61 | 0 | 0.0 | 0.9 | 0.00 | 0.00 | 0.00 | 57 | 1012.0 |
| 20260505004040 | 61 | 0 | 0.0 | 0.9 | 0.00 | 0.00 | 0.00 | 55 | 1011.9 |
| 20260505003537 | 62 | 0 | 0.0 | 2.6 | 0.00 | 0.00 | 0.00 | 55 | 1011.9 |
| 20260505003051 | 63 | 0 | 0.0 | 2.6 | 0.00 | 0.00 | 0.00 | 53 | 1011.9 |
| 20260505002536 | 63 | 106 | 0.0 | 1.7 | 0.00 | 0.00 | 0.00 | 53 | 1011.8 |
| 20260505002040 | 63 | 136 | 0.0 | 1.7 | 0.00 | 0.00 | 0.00 | 52 | 1011.7 |
| 20260505001546 | 64 | 141 | 0.9 | 4.3 | 0.00 | 0.00 | 0.00 | 51 | 1011.7 |
| 20260505001039 | 64 | 146 | 0.0 | 4.3 | 0.00 | 0.00 | 0.00 | 50 | 1011.6 |
| 20260505000537 | 65 | 233 | 0.0 | 3.5 | 0.00 | 0.00 | 0.00 | 49 | 1011.5 |
| 20260505000045 | 65 | 150 | 0.0 | 5.2 | 0.00 | 0.00 | 0.00 | 48 | 1011.5 |
| 20260504235537 | 66 | 146 | 0.9 | 5.2 | 0.00 | 0.00 | 0.00 | 46 | 1011.4 |
| 20260504235037 | 67 | 132 | 0.9 | 2.6 | 0.00 | 0.00 | 0.00 | 43 | 1011.3 |
| 20260504234541 | 67 | 132 | 0.0 | 8.7 | 0.00 | 0.00 | 0.00 | 39 | 1011.2 |
| 20260504234036 | 68 | 228 | 2.6 | 8.7 | 0.00 | 0.00 | 0.00 | 38 | 1011.2 |
| 20260504233537 | 68 | 235 | 0.9 | 7.0 | 0.00 | 0.00 | 0.00 | 39 | 1011.1 |
| 20260504233049 | 69 | 290 | 2.6 | 7.0 | 0.00 | 0.00 | 0.00 | 37 | 1011.1 |
| 20260504232537 | 69 | 327 | 1.7 | 7.8 | 0.00 | 0.00 | 0.00 | 36 | 1011.1 |
| 20260504232037 | 69 | 261 | 0.9 | 7.8 | 0.00 | 0.00 | 0.00 | 36 | 1011.0 |
| 20260504231618 | 70 | 246 | 0.0 | 6.1 | 0.00 | 0.00 | 0.00 | 35 | 1011.0 |
| 20260504231036 | 70 | 271 | 0.9 | 10.4 | 0.00 | 0.00 | 0.00 | 34 | 1011.0 |
| 20260504230536 | 70 | 334 | 2.6 | 10.4 | 0.00 | 0.00 | 0.00 | 35 | 1010.9 |
| 20260504230047 | 70 | 226 | 3.5 | 11.3 | 0.00 | 0.00 | 0.00 | 33 | 1010.9 |
| 20260504225537 | 70 | 221 | 2.6 | 11.3 | 0.00 | 0.00 | 0.00 | 34 | 1010.9 |
| 20260504225038 | 70 | 321 | 1.7 | 12.2 | 0.00 | 0.00 | 0.00 | 34 | 1010.8 |
| 20260504224550 | 70 | 238 | 5.2 | 12.2 | 0.00 | 0.00 | 0.00 | 33 | 1010.8 |
| 20260504224039 | 71 | 257 | 3.5 | 9.6 | 0.00 | 0.00 | 0.00 | 34 | 1010.9 |
| 20260504223537 | 71 | 219 | 3.5 | 9.6 | 0.00 | 0.00 | 0.00 | 33 | 1010.9 |
| 20260504223046 | 71 | 273 | 2.6 | 11.3 | 0.00 | 0.00 | 0.00 | 33 | 1010.8 |
| 20260504222538 | 71 | 221 | 3.5 | 11.3 | 0.00 | 0.00 | 0.00 | 32 | 1010.6 |
| 20260504222039 | 72 | 261 | 3.5 | 13.0 | 0.00 | 0.00 | 0.00 | 32 | 1010.7 |
| 20260504221630 | 72 | 290 | 2.6 | 13.0 | 0.00 | 0.00 | 0.00 | 32 | 1010.8 |
| 20260504221037 | 72 | 258 | 2.6 | 12.2 | 0.00 | 0.00 | 0.00 | 32 | 1010.8 |
| 20260504220537 | 72 | 272 | 4.3 | 12.2 | 0.00 | 0.00 | 0.00 | 31 | 1010.9 |
| 20260504220051 | 72 | 265 | 4.3 | 11.3 | 0.00 | 0.00 | 0.00 | 32 | 1011.0 |
| 20260504215541 | 72 | 259 | 3.5 | 10.4 | 0.00 | 0.00 | 0.00 | 31 | 1011.0 |
| 20260504215037 | 72 | 238 | 4.3 | 13.9 | 0.00 | 0.00 | 0.00 | 31 | 1010.8 |
| 20260504214541 | 72 | 231 | 5.2 | 13.9 | 0.00 | 0.00 | 0.00 | 31 | 1010.8 |
| 20260504214055 | 73 | 261 | 4.3 | 13.0 | 0.00 | 0.00 | 0.00 | 30 | 1010.7 |
| 20260504213536 | 73 | 263 | 1.7 | 12.2 | 0.00 | 0.00 | 0.00 | 32 | 1010.8 |
| 20260504213049 | 73 | 330 | 2.6 | 12.2 | 0.00 | 0.00 | 0.00 | 31 | 1011.0 |
| 20260504212537 | 73 | 238 | 2.6 | 10.4 | 0.00 | 0.00 | 0.00 | 31 | 1010.9 |
| 20260504212039 | 73 | 198 | 2.6 | 12.2 | 0.00 | 0.00 | 0.00 | 31 | 1010.9 |
| 20260504211542 | 72 | 239 | 4.3 | 12.2 | 0.00 | 0.00 | 0.00 | 31 | 1011.1 |
| 20260504211036 | 72 | 248 | 6.1 | 10.4 | 0.00 | 0.00 | 0.00 | 31 | 1011.0 |
| 20260504210536 | 72 | 0 | 3.5 | 12.2 | 0.00 | 0.00 | 0.00 | 33 | 1010.9 |
| 20260504210047 | 72 | 229 | 4.3 | 13.0 | 0.00 | 0.00 | 0.00 | 32 | 1010.9 |
| 20260504205536 | 72 | 250 | 4.3 | 13.0 | 0.00 | 0.00 | 0.00 | 31 | 1011.1 |
| 20260504205037 | 72 | 220 | 6.1 | 12.2 | 0.00 | 0.00 | 0.00 | 31 | 1010.9 |
| 20260504204547 | 72 | 223 | 2.6 | 12.2 | 0.00 | 0.00 | 0.00 | 33 | 1011.0 |
| 20260504204040 | 72 | 234 | 4.3 | 11.3 | 0.00 | 0.00 | 0.00 | 31 | 1011.1 |
| 20260504203536 | 72 | 222 | 4.3 | 9.6 | 0.00 | 0.00 | 0.00 | 31 | 1010.9 |
| 20260504203049 | 72 | 269 | 3.5 | 9.6 | 0.00 | 0.00 | 0.00 | 30 | 1011.0 |
| 20260504202537 | 73 | 248 | 4.3 | 9.6 | 0.00 | 0.00 | 0.00 | 30 | 1011.0 |
| 20260504202036 | 73 | 229 | 3.5 | 8.7 | 0.00 | 0.00 | 0.00 | 33 | 1011.0 |
| 20260504201547 | 72 | 247 | 2.6 | 10.4 | 0.00 | 0.00 | 0.00 | 32 | 1011.0 |
| 20260504201040 | 72 | 233 | 3.5 | 10.4 | 0.00 | 0.00 | 0.00 | 33 | 1011.1 |
| 20260504200536 | 72 | 254 | 4.3 | 9.6 | 0.00 | 0.00 | 0.00 | 31 | 1011.1 |
| 20260504200045 | 72 | 275 | 3.5 | 10.4 | 0.00 | 0.00 | 0.00 | 32 | 1011.0 |
| 20260504195536 | 72 | 219 | 2.6 | 12.2 | 0.00 | 0.00 | 0.00 | 33 | 1011.1 |
| 20260504195036 | 72 | 269 | 4.3 | 12.2 | 0.00 | 0.00 | 0.00 | 32 | 1011.2 |
| 20260504194552 | 72 | 194 | 4.3 | 11.3 | 0.00 | 0.00 | 0.00 | 33 | 1011.3 |
| 20260504194038 | 72 | 302 | 1.7 | 13.0 | 0.00 | 0.00 | 0.00 | 35 | 1011.2 |
| 20260504193536 | 71 | 200 | 4.3 | 13.0 | 0.00 | 0.00 | 0.00 | 33 | 1011.3 |
| 20260504193047 | 72 | 166 | 4.3 | 13.0 | 0.00 | 0.00 | 0.00 | 32 | 1011.4 |
| 20260504192536 | 71 | 263 | 2.6 | 10.4 | 0.00 | 0.00 | 0.00 | 35 | 1011.4 |
| 20260504192037 | 71 | 248 | 2.6 | 10.4 | 0.00 | 0.00 | 0.00 | 32 | 1011.4 |
| 20260504191610 | 71 | 227 | 4.3 | 11.3 | 0.00 | 0.00 | 0.00 | 33 | 1011.6 |
| 20260504191036 | 71 | 219 | 4.3 | 12.2 | 0.00 | 0.00 | 0.00 | 33 | 1011.6 |
| 20260504190536 | 70 | 294 | 4.3 | 13.9 | 0.00 | 0.00 | 0.00 | 34 | 1011.7 |
| 20260504190049 | 71 | 324 | 4.3 | 13.9 | 0.00 | 0.00 | 0.00 | 32 | 1011.8 |
| 20260504185537 | 70 | 248 | 4.3 | 13.9 | 0.00 | 0.00 | 0.00 | 34 | 1012.0 |
| 20260504185036 | 70 | 319 | 5.2 | 13.0 | 0.00 | 0.00 | 0.00 | 32 | 1012.0 |
| 20260504184556 | 70 | 302 | 4.3 | 11.3 | 0.00 | 0.00 | 0.00 | 34 | 1012.1 |
| 20260504184037 | 70 | 154 | 4.3 | 10.4 | 0.00 | 0.00 | 0.00 | 33 | 1012.2 |
| 20260504183537 | 70 | 266 | 3.5 | 13.0 | 0.00 | 0.00 | 0.00 | 33 | 1012.2 |
| 20260504183046 | 70 | 232 | 3.5 | 13.0 | 0.00 | 0.00 | 0.00 | 34 | 1012.3 |
| 20260504182536 | 70 | 223 | 4.3 | 13.0 | 0.00 | 0.00 | 0.00 | 33 | 1012.3 |
| 20260504182036 | 70 | 262 | 5.2 | 10.4 | 0.00 | 0.00 | 0.00 | 34 | 1012.5 |
| 20260504181546 | 70 | 221 | 3.5 | 11.3 | 0.00 | 0.00 | 0.00 | 35 | 1012.4 |
| 20260504181037 | 70 | 273 | 1.7 | 12.2 | 0.00 | 0.00 | 0.00 | 35 | 1012.6 |
| 20260504180536 | 70 | 260 | 4.3 | 12.2 | 0.00 | 0.00 | 0.00 | 33 | 1012.8 |
| 20260504180051 | 69 | 261 | 4.3 | 13.0 | 0.00 | 0.00 | 0.00 | 34 | 1012.7 |
| 20260504175538 | 69 | 322 | 3.5 | 14.8 | 0.00 | 0.00 | 0.00 | 35 | 1012.8 |
| 20260504175037 | 69 | 146 | 5.2 | 14.8 | 0.00 | 0.00 | 0.00 | 33 | 1012.9 |
| 20260504174548 | 69 | 192 | 2.6 | 10.4 | 0.00 | 0.00 | 0.00 | 33 | 1012.9 |
| 20260504174037 | 69 | 225 | 5.2 | 10.4 | 0.00 | 0.00 | 0.00 | 35 | 1013.0 |
| 20260504173536 | 69 | 266 | 1.7 | 13.9 | 0.00 | 0.00 | 0.00 | 35 | 1013.0 |
| 20260504173047 | 69 | 210 | 3.5 | 13.9 | 0.00 | 0.00 | 0.00 | 34 | 1013.1 |
| 20260504172536 | 68 | 223 | 4.3 | 14.8 | 0.00 | 0.00 | 0.00 | 35 | 1013.3 |
| 20260504172039 | 68 | 265 | 4.3 | 14.8 | 0.00 | 0.00 | 0.00 | 36 | 1013.3 |
| 20260504171546 | 68 | 271 | 3.5 | 14.8 | 0.00 | 0.00 | 0.00 | 36 | 1013.3 |
| 20260504171037 | 68 | 297 | 3.5 | 9.6 | 0.00 | 0.00 | 0.00 | 35 | 1013.4 |
| 20260504170537 | 68 | 291 | 4.3 | 13.9 | 0.00 | 0.00 | 0.00 | 36 | 1013.5 |
| 20260504151035 | 64 | 288 | 3.5 | 11.3 | 0.00 | 0.00 | 0.00 | 45 | 1014.6 |
| 20260504150535 | 64 | 229 | 3.5 | 10.4 | 0.00 | 0.00 | 0.00 | 46 | 1014.6 |
| 20260504141038 | 62 | 225 | 4.3 | 13.9 | 0.00 | 0.00 | 0.00 | 48 | 1014.9 |
| 20260504140535 | 61 | 215 | 1.7 | 13.9 | 0.00 | 0.00 | 0.00 | 51 | 1014.7 |